Regional Weather Roundup
Issued by NWS

Home | Current Version | Previous Version | Text Only | Print | Product List | Glossary On
Versions: 1 2 3 4 5 6 7 8 9 10 11 12 13 14 15 16 17 18 19 20 21 22 23 24 25 26 27 28 29 30 31 32 33 34 35 36 37 38 39 40 41 42 43 44 45 46 47 48 49 50
081
ASUS45 KCYS 220610
RWRWY

WYOMING REGIONAL WEATHER ROUNDUP
NATIONAL WEATHER SERVICE CHEYENNE WY
1100 PM MST SAT JAN 21 2017

NOTE:  "FAIR" INDICATES FEW OR NO CLOUDS BELOW 12,000 FEET
WITH NO SIGNIFICANT WEATHER AND/OR OBSTRUCTIONS TO VISIBILITY.

WYZ001-220700-
YELLOWSTONE NATIONAL PARK

CITY           SKY/WX    TMP DP  RH WIND       PRES   REMARKS
LK YELLOWSTONE   N/A     18  15  88 VRB3      29.75R
6HR MIN TEMP:  18; 6HR MAX TEMP:  23;

W YELLOWSTONE  NOT AVBL

$$
WYZ002>013-054>058-071-098>099-220700-
NORTHERN WYOMING

CITY           SKY/WX    TMP DP  RH WIND       PRES   REMARKS
JACKSON        CLOUDY    25  21  86 S9        29.79R WCI  15
CODY           MOCLDY    23  18  81 S5        29.71R WCI  17
GREYBULL       CLOUDY    15  10  80 E3        29.75R
6HR MIN TEMP:   9; 6HR MAX TEMP:  15;

WORLAND        CLOUDY    16  14  92 CALM      29.74R
6HR MIN TEMP:  13; 6HR MAX TEMP:  17;

SHERIDAN       CLOUDY    25  19  78 SW7       29.68R WCI  17
6HR MIN TEMP:  18; 6HR MAX TEMP:  26;

BUFFALO        CLOUDY    30  15  53 W3        29.67R
6HR MIN TEMP:  22; 6HR MAX TEMP:  31;

GILLETTE       FAIR      27  23  85 W10       29.66R WCI  17
6HR MIN TEMP:  24; 6HR MAX TEMP:  34;

HULETT         FAIR      23  19  86 MISG      29.66S
NEWCASTLE      FAIR      19  19 100 CALM      29.68R

$$
WYZ014>020-022>026-101>103-220700-
CENTRAL WYOMING

CITY           SKY/WX    TMP DP  RH WIND       PRES   REMARKS
BIG PINEY      FAIR      12   9  87 N9        29.80R WCI   0
6HR MIN TEMP:   9; 6HR MAX TEMP:  21;

PINEDALE       FAIR       9   9 100 NW6       29.80R WCI  -1
DUBOIS         NOT AVBL
LANDER         FAIR      19  14  81 CALM      29.72R
6HR MIN TEMP:  17; 6HR MAX TEMP:  21;

RIVERTON       CLOUDY   N/A N/A N/A SW5       29.73R
CASPER         CLOUDY    27  19  72 SW10      29.70R WCI  17
6HR MIN TEMP:  21; 6HR MAX TEMP:  31;

DOUGLAS        FAIR      25  17  72 W6        29.69R WCI  18
6HR MIN TEMP:  22; 6HR MAX TEMP:  35;


$$
WYZ021-027>030-104>119-220700-
SOUTHERN WYOMING

CITY           SKY/WX    TMP DP  RH WIND       PRES   REMARKS
EVANSTON       FAIR      17  13  84 SW10      29.86R WCI   5
6HR MIN TEMP:  17; 6HR MAX TEMP:  24; 6HR PCP: TRACE;

ROCK SPRINGS   FAIR      21  16  81 W21       29.82R WCI   5
6HR MIN TEMP:  21; 6HR MAX TEMP:  26; 6HR PCP: TRACE;

RAWLINS        LGT SNOW  24  19  81 W13       29.74R WCI  12
6HR MIN TEMP:  21; 6HR MAX TEMP:  25; 6HR PCP: TRACE;

LARAMIE        FAIR      13  11  92 CALM      29.68R
6HR MIN TEMP:  12; 6HR MAX TEMP:  25;

CHEYENNE       CLOUDY    29  20  69 NW6       29.67R WCI  23
6HR MIN TEMP:  27; 6HR MAX TEMP:  34;

TORRINGTON     CLOUDY    30  25  81 W6        29.67R WCI  24
6HR MIN TEMP:  29; 6HR MAX TEMP:  39;


$$




USA.gov is the U.S. government's official web portal to all federal, state and local government web resources and services.